THORAD DELTA 1 DEB, 8563

Orbit data source: Space-Track

THORAD DELTA 1 DEB, 8563 is space debris in SSO originally from a launch on Fri, 15 Nov 1974 UTC launched from the Air Force Western Test Range (AFWTR). Debris objects in space refer to the collection of defunct objects orbiting the Earth. Examples of debris include non-operational satellites, rocket bodies, and fragments generated from explosions, collisions, or faulty payload assembly.

Loading next visibility...
Identifier
8563, 1974-089DA
Orbit
SSO
Country
Flag of USUS
Related business
Manufacturer
Unknown
Mission
Spacecraft
Bus & Motor
Unknown
Mass
Unknown
Launch date (UTC)
1974-11-15 (51 years ago)
Launch vehicle
Unknown
Launch site
Air Force Western Test Range (AFWTR)
Object type
Payload
Rocket body
Debris
Shape & HBR
Unknown shape, 0.1 m
Radar Cross Section
Small (<0.1 m²)

Expand to show TLE details & history
Last TLE update: 14 hours ago

TLE from 14 hours ago
0 THORAD DELTA 1 DEB
1  8563U 74089DA  26036.23301054  .00000085  00000-0  79113-3 0  9992
2  8563 101.4056 135.9993 0080016  91.4662 297.3881 12.53591555339568
Epoch: 2026-02-05T05:35Z
TLE epoch observation values (Epoch: 2026-02-05T05:35:32.110Z)
Latitude
27.47479°
Longitude
-89.26453°
Altitude
1,424.177 km
Speed
7.164 km/s
True Right ascension
08h 40m 01s
True Declination
27° 20' 47"
Sunlit
Object was in full shadow at epoch
Visualization orbit readout
Latitude
Unknown
Longitude
Unknown
Altitude
Unknown
Speed
Unknown
Apparent Right ascension
Unknown
Apparent Declination
Unknown
Sunlit
N/A
Visualization observer readout
Local Sidereal Time
22:07:42
Azimuth
Unknown
Elevation
Unknown
Doppler factor
Unknown
Orbital elements
Apogee altitude
1,509.644 km
Perigee altitude
1,384.416 km
Semi-major axis
7,825.167 km
Eccentricity
0.008
Inclination
101.4056°
RAAN
135.9993°
Arg. of periapsis
91.4662°
True anomaly
296.57023°
Mean anomaly
297.3881°
Eccentric anomaly
296.97954°
Mean motion
3.13547 °/min
Orbital period
114.82 mins
BSTAR
0.00079113
Loading maneuver chart data...
Computing Atmospheric mass density...

Documentation

Showing up to 5 results
|